Dewpoint
-4 -3 -4 -5 -7 -8 -7 -4 -4 -2 -1 -0 -2 -3 -1 -2 -3 -3 -3 -3 -2 -1 0 -0 -1 -0 -3 -3 -3 -1 1 2 3 1 -1 -1 2 4 6 7 7 5 6 4
-3 -3 -4 -5 -8 -9 -5 -4 -4 -4 -0 -3 -3 -2 -1 -2 -2 -3 -3 -2 -3 -4 -2 -2 -1 -1 -2 -3 -1 1 -0 3 3 -1 2 3 5 5 4 5 5 5 6 4
-2 -3 -4 -5 -6 -9 -5 -3 -5 -5 -1 -0 -3 -2 -1 -2 -2 -3 -3 -3 -3 -3 -0 -1 -0 -1 -2 -5 -3 -3 -1 3 3 3 -0 0 1 -1 -0 3 4 2 3 2
-4 -5 -4 -4 -6 -8 -7 -4 -4 -3 -5 -5 -1 0 -0 -1 -1 -2 -1 -1 -1 -1 -0 -3 -3 -4 -3 -4 -4 -2 -2 1 1 0 1 1 2 2 2 3 2 5 3 5
-5 -5 -5 -6 -8 -7 -8 -5 -4 -3 -2 -3 -2 -1 0 0 1 0 -1 0 -3 -3 -2 -3 -2 -3 -3 -2 -3 -2 -2 -1 0 -2 -4 -3 -2 -3 -3 -4 -1 -1 1 1
-5 -6 -7 -6 -6 -6 -8 -7 -3 -4 -5 -4 -3 -4 -3 -1 -2 -4 -4 -4 -4 -5 -5 -6 -6 -5 -4 -3 -2 -2 -1 -2 -2 -3 -7 -4 -1 -4 -5 -5 -6 -5 -2 -4
-7 -8 -6 -4 -4 -5 -6 -7 -8 -5 -6 -4 -5 -5 -6 -6 -5 -4 -5 -6 -6 -6 -7 -8 -7 -6 -6 -4 -3 -2 -1 -1 -3 -2 -3 -2 -8 -9 -9 -7 -8 -8 -6 -7
-8 -11 -10 -6 -4 -8 -9 -6 -4 -4 -6 -5 -5 -5 -4 -5 -5 -6 -6 -7 -7 -8 -7 -3 -4 -5 -6 -7 -6 -4 -2 -4 -4 -2 -3 -5 -5 -6 -6 -5 -3 -6 -5 -6
-6 -6 -7 -8 -11 -11 -9 -7 -6 -4 -5 -6 -7 -6 -7 -5 -5 -5 -6 -7 -7 -8 -4 -3 -3 -4 -5 -5 -6 -6 -4 -3 -1 -2 -1 -4 -8 -5 -2 -3 -1 -3 -3 -2
-3 -3 -4 -4 -5 -7 -7 -8 -6 -5 -5 -6 -7 -5 -5 -5 -5 -5 -6 -6 -6 -6 -5 -5 -4 -5 -9 -8 -9 -8 -5 -3 -2 -3 -2 -3 -5 -7 -3 -0 -5 -3 -0 -0
-7 -6 -4 -4 -3 -3 -3 -4 -4 -6 -5 -6 -7 -7 -7 -7 -7 -6 -7 -6 -7 -6 -6 -7 -5 -4 -8 -8 -11 -10 -8 -7 -4 -4 -6 -4 -10 -8 -1 -4 -3 -4 -3 -2
-8 -10 -9 -7 -7 -5 -4 -4 -4 -3 -4 -6 -6 -7 -6 -6 -8 -7 -6 -7 -7 -6 -6 -6 -6 -4 -4 -4 -3 -9 -6 -7 -5 -5 -7 -7 -7 -3 -4 -3 -4 -4 -4 -3
-8 -6 -5 -6 -6 -5 -4 -4 -3 -3 -3 -4 -4 -4 -9 -8 -6 -6 -5 -6 -6 -7 -8 -6 -5 -4 -5 -5 -7 -8 -11 -12 -7 -7 -7 -7 -6 -6 -7 -6 -5 -6 -6 -2
-6 -7 -7 -5 -4 -4 -3 -2 -3 -3 -4 -4 -7 -8 -9 -10 -11 -9 -8 -7 -5 -6 -6 -4 -3 -4 -7 -7 -8 -7 -8 -6 -4 -4 -5 -5 -5 -5 -6 -8 -9 -6 -8 -11
-7 -8 -8 -6 -4 -3 -3 -3 -4 -5 -4 -5 -6 -7 -13 -13 -9 -8 -9 -6 -4 -3 -3 -3 -3 -4 -4 -4 -4 -4 -6 -4 -3 -3 -5 -5 -6 -9 -9 -8 -8 -7 -8 -10
-10 -8 -4 -4 -4 -4 -4 -5 -6 -5 -4 -4 -6 -10 -11 -9 -9 -9 -8 -7 -4 -3 -3 -3 -3 -3 -4 -1 -3 -7 -8 -8 -7 -6 -5 -5 -6 -7 -8 -7 -6 -9 -6 -4
-7 -3 -3 -5 -6 -5 -6 -9 -6 -7 -5 -5 -5 -5 -7 -8 -9 -6 -5 -5 -4 -3 -3 -3 -4 -3 -1 -1 -2 -7 -7 -7 -6 -6 -5 -6 -7 -7 -8 -7 -9 -8 -7 -6
-3 -4 -8 -7 -6 -6 -6 -8 -7 -5 -5 -5 -6 -6 -7 -9 -5 -4 -3 -2 -3 -2 -3 -3 -2 -4 -2 -1 -6 -7 -7 -7 -7 -7 -7 -7 -7 -7 -8 -8 -8 -7 -4 -4
-5 -8 -7 -5 -5 -6 -7 -9 -8 -8 -7 -5 -5 -6 -8 -9 -6 -4 -3 -3 -3 -4 -2 -3 -3 -3 -2 -4 -6 -7 -7 -7 -7 -7 -7 -7 -7 -7 -7 -7 -7 -6 -1 -1
-8 -6 -6 -7 -9 -9 -10 -7 -5 -4 -4 -5 -5 -7 -6 -8 -9 -9 -7 -5 -5 -5 -4 -3 -2 -4 -6 -7 -7 -6 -6 -5 -4 -6 -6 -6 -5 -2 -4 -6 -7 -3 1 0
-5 -7 -11 -11 -9 -6 -4 -4 -4 -5 -4 -4 -4 -6 -6 -7 -6 -5 -5 -5 -4 -2 -3 -2 -2 -2 -3 -0 -0 -3 -4 -4 -0 0 1 0 0 -0 -3 -5 -4 0 0 -1
-8 -11 -9 -6 -5 -4 -4 -5 -4 -3 -4 -4 -4 -4 -4 -4 -4 -3 -3 -2 -3 -2 -3 -1 -1 -1 -2 -2 -3 -4 -4 -4 -2 -1 -1 -1 -0 -0 -0 -2 -3 0 0 -0
-8 -7 -6 -5 -5 -7 -6 -7 -4 -3 -3 -3 -2 -2 -2 -3 -4 -3 -2 -2 -2 -2 -0 -0 0 -2 -3 -3 -4 -5 -4 -2 -2 -1 -1 -0 0 0 0 -3 1 0 -0 -1
-7 -6 -8 -6 -10 -6 -5 -5 -4 -5 -3 -3 -2 -2 -2 -2 -3 -2 -2 -3 -2 -1 -0 0 -2 -3 -1 -2 -4 -5 -3 -3 -2 -1 0 -0 -0 -0 -2 -0 0 -0 -1 -2
-5 -4 -7 -8 -8 -7 -6 -6 -5 -6 -5 -3 -2 -2 -2 -1 -1 -1 -1 -1 -0 0 0 -1 -2 -3 -3 -3 -4 -6 -4 -3 -2 -1 -1 -0 -0 -1 -0 0 -0 -1 -1 -3
-7 -5 -6 -6 -5 -5 -5 -6 -6 -9 -5 -2 -2 -2 -2 -1 -1 -1 -1 1 -0 -1 -1 -1 -2 -3 -4 -3 -4 -6 -4 -3 -2 -2 -1 -1 -0 0 0 -0 -1 -2 -3 -5
-7 -6 -6 -6 -6 -6 -8 -8 -8 -7 -3 -2 -2 -2 -1 -2 -0 -0 -1 -1 -1 -1 -1 -2 -3 -3 -4 -4 -4 -6 -5 -2 -3 -2 -1 -0 -0 -0 -0 -1 -4 -5 -5 -5
Wind_Speed
15 13 10 8 7 6 4 2 2 3 11 4 4 2 1 3 3 4 3 1 4 4 5 5 6 10 14 5 3 4 1 3 4 5 14 10 6 2 3 3 1 3 3 7
15 12 10 7 4 3 1 1 3 3 16 3 4 3 4 3 2 2 0 2 1 3 2 3 3 3 4 8 4 4 5 1 5 7 2 7 4 4 1 1 1 6 4 6
14 12 10 8 5 2 4 0 2 2 6 2 4 3 3 3 3 6 6 4 3 2 2 3 3 4 3 10 2 4 6 2 5 7 7 5 13 15 10 8 6 10 12 23
13 12 11 10 8 5 6 2 2 1 2 3 2 3 3 4 6 2 4 2 5 4 1 5 4 3 2 4 4 2 2 4 4 7 5 8 14 15 16 15 16 10 17 10
12 12 11 11 9 8 8 2 1 2 3 6 2 1 1 3 3 0 1 3 3 6 6 7 4 2 1 5 2 1 2 4 1 9 10 9 13 19 21 15 18 19 21 21
14 12 12 10 11 10 5 8 2 1 4 3 1 2 1 4 5 4 3 3 4 3 1 4 9 11 8 7 4 5 3 2 2 9 11 3 8 19 17 18 21 17 18 22
13 12 12 12 12 9 9 5 6 4 3 1 2 2 6 5 4 4 9 8 1 3 14 14 8 10 15 14 10 13 6 5 3 9 11 6 9 10 15 18 19 19 19 21
11 9 10 13 12 11 12 12 8 4 2 5 6 6 4 6 7 4 8 12 13 16 12 3 4 3 4 8 11 10 14 4 2 3 10 12 10 10 2 4 12 16 18 19
11 10 10 11 12 12 13 14 15 9 2 5 15 4 7 4 3 3 4 7 7 7 1 1 3 3 3 4 5 3 4 7 4 2 6 12 13 5 4 3 10 11 7 11
13 13 13 13 14 15 14 14 15 12 5 15 11 5 4 5 2 2 5 5 4 3 2 2 5 8 3 8 10 5 2 3 9 10 8 6 11 20 2 5 10 5 4 6
14 14 15 16 16 16 18 20 18 18 9 18 16 11 15 11 6 4 3 4 5 2 1 3 4 4 5 7 16 11 7 5 4 2 2 9 17 13 10 8 4 16 21 25
14 14 16 17 18 18 18 23 23 22 22 14 11 16 18 23 27 19 10 8 2 5 1 1 1 4 2 3 4 3 4 7 4 6 8 10 15 12 21 28 28 26 26 28
13 12 13 14 16 16 19 25 25 23 14 17 26 28 25 20 26 29 19 17 17 17 24 5 3 7 3 6 9 10 13 22 9 17 19 21 35 38 41 34 30 23 24 26
11 11 12 13 13 15 18 21 14 10 5 4 11 5 15 16 17 22 28 34 25 20 18 10 5 5 10 7 10 13 12 5 8 14 25 22 32 34 34 27 27 22 27 29
11 12 13 13 11 11 12 11 14 11 9 4 12 30 33 14 19 26 29 28 31 22 9 5 7 6 6 5 6 17 16 22 11 17 23 19 20 28 31 23 28 30 38 36
11 11 10 9 9 9 8 4 10 16 14 5 4 11 29 22 16 23 25 25 27 20 8 6 12 22 11 4 10 31 25 36 41 26 42 33 33 31 31 32 34 32 29 24
8 9 7 8 8 9 6 2 4 4 13 4 4 5 6 11 12 8 14 21 17 16 11 10 16 17 9 3 11 29 25 22 28 36 32 27 30 25 29 23 36 31 30 27
8 8 8 7 7 7 13 12 9 6 2 3 3 5 8 6 5 2 4 6 12 9 8 5 4 10 7 7 21 39 22 27 29 35 38 40 43 40 37 32 29 29 24 19
11 11 10 7 5 4 4 5 8 12 11 3 4 2 4 3 4 4 3 6 4 8 4 5 6 4 7 14 14 26 24 19 27 30 31 32 34 36 34 31 30 27 20 16
13 13 4 3 4 6 5 3 3 9 10 9 5 6 4 6 5 3 3 4 3 3 5 6 4 8 26 28 30 32 37 33 29 25 27 26 27 32 32 29 26 23 18 14
13 5 2 3 4 2 3 3 4 5 3 7 7 15 9 11 3 4 6 2 2 3 3 4 3 3 3 9 18 20 24 27 26 24 27 28 31 24 26 23 20 17 14 13
8 3 3 3 3 3 2 2 3 4 3 4 4 8 14 9 14 6 5 3 2 6 3 3 3 2 14 15 22 26 28 28 26 26 33 36 32 30 24 23 19 18 15 14
6 2 1 0 2 0 4 4 3 3 3 5 8 6 6 7 13 4 3 5 5 1 3 3 1 12 15 21 28 35 27 28 28 28 25 18 19 19 19 17 16 13 14 17
2 2 3 4 3 5 5 4 3 9 11 21 23 14 4 9 4 3 4 4 2 3 2 1 2 15 26 29 27 31 30 32 28 22 14 6 13 14 12 15 11 14 16 19
2 3 4 6 11 11 10 14 13 21 24 24 17 10 6 3 3 3 3 2 3 3 2 1 12 19 25 26 26 32 29 30 21 15 8 5 11 14 18 14 11 19 19 18
4 6 5 9 5 8 9 14 18 22 17 20 8 3 3 4 2 4 4 2 2 3 2 14 20 25 26 26 24 29 25 25 18 9 3 8 15 19 15 19 17 17 16 17
4 7 14 18 17 14 22 19 22 20 10 2 2 3 2 4 3 2 0 1 5 14 18 22 22 24 24 24 23 27 21 21 17 10 5 4 10 16 18 19 18 16 15 14
Wind_Direction
238 241 247 263 277 287 294 307 340 10 171 143 214 208 240 312 321 43 8 268 215 229 185 252 212 219 214 3 292 314 171 213 251 258 275 287 276 282 10 230 358 298 279 252
221 222 231 234 257 248 259 233 280 278 187 185 216 277 293 278 358 37 82 273 119 74 163 318 267 276 69 39 44 39 360 263 321 318 315 61 55 64 23 336 225 242 275 274
211 222 214 210 228 214 195 156 348 281 218 211 158 185 258 242 249 237 247 245 257 225 1 207 279 2 329 345 310 317 149 256 247 251 265 316 296 296 279 256 249 274 254 280
213 208 207 216 240 226 183 180 243 243 304 312 257 307 319 219 219 300 54 329 215 127 10 325 265 267 349 330 302 22 67 249 237 266 273 279 281 281 273 265 268 263 285 273
203 206 213 224 228 205 186 184 211 2 289 304 205 207 281 340 26 360 206 242 237 228 226 213 273 291 260 232 312 40 355 265 310 278 263 248 259 264 265 267 256 260 262 270
208 220 218 210 201 196 187 213 211 322 308 333 52 243 62 63 7 291 80 347 294 289 20 322 289 281 255 240 211 212 212 189 111 274 289 263 257 246 254 254 260 258 260 259
222 210 206 205 210 215 223 228 217 189 264 187 246 324 331 313 317 259 303 324 280 297 309 311 283 264 264 248 234 212 210 205 166 268 291 206 243 234 248 256 265 272 269 267
204 210 213 213 224 237 234 227 213 197 237 252 281 263 260 295 288 257 254 272 269 291 300 323 316 305 286 251 233 223 210 190 242 216 252 273 290 269 242 275 282 271 261 263
207 213 214 220 225 236 234 233 231 236 245 241 247 255 252 268 263 284 255 296 300 304 222 146 216 234 244 280 285 253 144 208 203 300 283 277 283 241 172 146 282 256 269 266
220 226 227 227 226 232 235 241 232 227 224 254 234 201 210 198 189 254 293 277 293 250 125 182 234 249 237 243 251 261 214 215 225 242 251 267 253 264 74 244 266 269 258 258
233 236 236 235 234 235 242 251 248 235 227 258 246 244 232 232 224 176 228 345 261 36 142 159 230 229 237 240 244 252 205 186 212 213 195 268 254 270 212 238 275 286 279 282
241 243 243 243 244 243 244 252 256 251 234 247 258 264 262 255 254 253 226 221 195 221 121 243 241 251 268 245 261 275 243 189 200 188 239 242 259 239 276 278 285 289 288 284
239 246 249 248 248 247 240 245 252 229 243 277 267 267 286 268 255 253 239 250 236 239 241 228 233 239 161 247 256 260 267 264 246 264 255 259 263 270 276 280 279 289 313 300
244 250 252 249 251 245 247 240 251 241 263 265 269 274 261 278 269 254 244 248 243 250 241 234 228 230 208 247 252 247 241 290 254 273 263 267 263 263 269 276 303 296 309 314
258 258 252 247 244 238 240 248 255 254 234 269 293 297 295 289 272 249 248 245 241 237 234 225 241 228 232 239 257 258 224 249 239 253 261 247 262 269 286 280 296 293 305 303
257 254 235 235 228 228 222 264 265 247 236 306 308 297 293 300 260 260 251 241 229 222 232 236 237 243 205 234 252 260 262 246 242 248 257 260 269 282 284 281 291 298 301 303
246 219 215 208 203 202 189 226 328 214 208 251 296 276 284 308 299 256 245 236 215 217 238 235 252 255 227 250 262 262 261 265 250 246 255 270 272 274 285 279 291 295 290 289
211 184 176 177 181 202 234 244 265 207 287 254 265 272 315 277 281 263 206 185 205 223 233 232 239 253 210 245 251 272 261 266 259 259 261 262 274 279 283 289 292 296 289 278
172 172 172 174 203 231 246 251 241 241 230 240 233 246 263 287 279 280 255 205 234 237 227 220 212 205 228 238 280 282 284 266 268 277 273 273 272 280 282 288 287 292 278 264
170 163 167 204 214 225 268 250 194 214 210 222 243 213 257 284 300 300 312 202 228 257 231 179 229 248 255 268 270 281 290 295 289 278 276 270 268 267 268 271 275 283 269 247
157 175 218 204 177 238 234 236 221 210 247 224 235 224 238 256 203 220 212 248 246 255 242 196 245 261 272 328 317 316 313 308 297 293 286 275 266 281 266 270 272 255 233 222
169 168 159 187 217 228 237 230 236 224 244 220 215 236 227 243 214 201 204 236 193 252 159 230 240 273 293 300 319 319 318 309 304 289 296 291 261 260 254 253 258 220 214 212
154 197 204 201 207 307 202 228 228 240 240 247 241 247 235 227 201 200 218 220 231 249 235 230 43 289 313 327 329 329 331 323 315 311 310 274 233 230 232 235 208 208 202 181
195 192 300 212 265 240 211 220 220 223 242 265 268 262 231 211 179 220 226 224 264 271 264 280 287 312 323 324 330 338 331 338 337 336 343 210 204 200 198 186 200 189 173 175
232 184 239 224 237 264 270 278 277 279 296 293 291 264 222 197 230 207 246 235 235 238 283 274 275 319 329 328 334 340 339 343 344 349 336 213 182 172 162 171 162 152 155 163
238 228 247 252 279 282 280 285 278 305 295 309 284 292 279 227 227 213 218 264 296 349 288 299 320 329 333 333 332 339 336 343 351 16 73 170 166 164 176 153 156 165 167 163
238 246 236 251 273 262 277 287 293 307 298 257 289 290 295 292 282 277 180 277 330 320 315 333 332 335 333 333 333 337 333 339 346 336 345 118 159 156 159 158 154 156 158 163
Height
1472 1473 1473 1475 1474 1475 1476 1477 1478 1474 1476 1479 1478 1481 1474 1471 1469 1469 1470 1471 1471 1471 1474 1472 1468 1470 1468 1468 1464 1463 1460 1465 1468 1459 1450 1449 1450 1450 1458 1452 1449 1458 1450 1429
1469 1471 1471 1473 1473 1476 1477 1476 1476 1474 1475 1482 1478 1475 1474 1472 1471 1471 1471 1471 1470 1471 1473 1477 1467 1464 1466 1465 1466 1470 1466 1468 1471 1458 1452 1452 1458 1461 1465 1463 1464 1454 1449 1425
1465 1469 1471 1471 1474 1474 1477 1476 1477 1474 1475 1475 1474 1474 1474 1473 1469 1470 1470 1470 1470 1470 1474 1472 1471 1468 1466 1466 1465 1465 1464 1472 1466 1468 1459 1458 1457 1450 1456 1460 1461 1449 1444 1430
1464 1466 1469 1471 1472 1473 1476 1475 1476 1477 1479 1477 1474 1473 1472 1470 1470 1469 1469 1470 1469 1472 1477 1475 1471 1468 1467 1467 1465 1464 1466 1468 1464 1460 1461 1460 1460 1455 1451 1451 1448 1449 1431 1437
1463 1465 1467 1469 1470 1472 1473 1475 1476 1476 1476 1476 1474 1472 1471 1470 1469 1471 1472 1473 1471 1471 1473 1472 1474 1469 1469 1469 1466 1465 1466 1473 1466 1463 1457 1459 1460 1450 1442 1445 1440 1435 1432 1428
1461 1464 1466 1466 1468 1470 1471 1475 1475 1476 1478 1476 1474 1473 1471 1474 1475 1472 1471 1472 1471 1469 1468 1468 1466 1466 1466 1466 1467 1468 1469 1472 1477 1465 1456 1458 1459 1442 1440 1429 1426 1425 1424 1411
1459 1461 1463 1465 1466 1468 1471 1472 1475 1477 1479 1476 1474 1473 1474 1473 1474 1474 1470 1470 1470 1468 1466 1465 1464 1463 1462 1461 1460 1461 1463 1465 1472 1462 1452 1477 1432 1424 1420 1419 1415 1410 1409 1404
1456 1458 1461 1463 1465 1466 1468 1472 1475 1474 1477 1474 1473 1472 1472 1472 1472 1472 1471 1469 1468 1466 1466 1467 1466 1463 1458 1451 1448 1449 1451 1460 1472 1467 1447 1434 1428 1419 1417 1417 1415 1406 1402 1397
1455 1457 1459 1461 1463 1465 1468 1470 1472 1473 1474 1472 1469 1470 1470 1471 1470 1469 1466 1465 1465 1465 1464 1467 1467 1470 1459 1454 1445 1439 1446 1449 1454 1458 1453 1442 1420 1412 1411 1411 1413 1397 1394 1394
1453 1455 1457 1459 1462 1464 1465 1466 1468 1471 1471 1466 1467 1467 1467 1467 1468 1468 1466 1464 1463 1462 1467 1474 1468 1461 1452 1451 1447 1460 1449 1454 1450 1447 1447 1433 1415 1403 1407 1414 1403 1391 1391 1388
1450 1453 1455 1457 1459 1461 1462 1463 1465 1466 1465 1461 1461 1461 1462 1463 1465 1467 1465 1466 1462 1464 1471 1473 1463 1458 1447 1443 1435 1435 1448 1454 1451 1445 1458 1442 1403 1403 1408 1393 1387 1387 1388 1386
1448 1449 1451 1453 1455 1457 1458 1458 1459 1461 1460 1456 1454 1454 1454 1456 1457 1461 1460 1460 1459 1458 1463 1463 1460 1451 1451 1444 1442 1429 1442 1432 1433 1430 1416 1400 1396 1395 1392 1392 1390 1386 1383 1379
1445 1446 1448 1449 1451 1453 1454 1453 1454 1454 1452 1451 1450 1442 1445 1447 1448 1452 1455 1452 1454 1452 1453 1453 1452 1452 1445 1443 1432 1428 1421 1418 1423 1414 1395 1395 1391 1387 1385 1382 1380 1379 1378 1373
1442 1443 1445 1446 1447 1449 1449 1448 1452 1453 1453 1450 1440 1439 1438 1440 1440 1441 1441 1442 1446 1447 1449 1448 1444 1441 1433 1426 1423 1419 1413 1411 1407 1401 1384 1390 1381 1379 1377 1376 1374 1371 1371 1369
1439 1440 1441 1443 1444 1446 1447 1448 1448 1450 1454 1448 1439 1435 1429 1429 1429 1430 1433 1434 1437 1440 1440 1435 1430 1426 1428 1420 1415 1394 1401 1394 1401 1385 1379 1378 1374 1373 1373 1370 1369 1367 1364 1361
1437 1438 1439 1440 1442 1444 1446 1447 1446 1446 1448 1448 1443 1430 1423 1422 1423 1424 1423 1423 1429 1431 1430 1424 1420 1417 1419 1410 1397 1359 1380 1380 1377 1373 1370 1371 1368 1367 1367 1364 1363 1361 1358 1356
1435 1436 1437 1439 1441 1443 1445 1446 1446 1444 1448 1448 1443 1431 1421 1420 1418 1416 1416 1418 1420 1423 1422 1416 1414 1411 1411 1399 1384 1344 1368 1368 1366 1366 1367 1362 1360 1357 1358 1357 1356 1353 1352 1349
1433 1435 1438 1440 1441 1443 1443 1444 1445 1446 1447 1447 1444 1433 1425 1418 1415 1414 1413 1414 1416 1415 1411 1406 1404 1401 1400 1386 1355 1347 1361 1359 1360 1358 1357 1353 1349 1349 1348 1349 1347 1345 1343 1341
1434 1436 1438 1440 1441 1442 1442 1442 1442 1443 1448 1443 1437 1433 1434 1418 1415 1413 1412 1411 1410 1406 1400 1397 1397 1388 1380 1355 1356 1352 1352 1354 1350 1348 1345 1343 1342 1341 1340 1341 1339 1338 1338 1337
1434 1437 1439 1439 1439 1440 1441 1441 1441 1440 1438 1436 1429 1426 1424 1421 1416 1412 1412 1407 1406 1400 1390 1387 1382 1369 1360 1356 1354 1351 1346 1344 1341 1339 1335 1335 1333 1332 1332 1332 1333 1333 1334 1334
1435 1437 1438 1438 1439 1440 1439 1438 1438 1434 1430 1425 1419 1417 1416 1414 1414 1411 1408 1403 1399 1391 1380 1381 1371 1360 1354 1353 1349 1347 1343 1338 1333 1330 1326 1325 1323 1323 1325 1325 1328 1329 1331 1333
1435 1436 1437 1438 1438 1438 1438 1435 1431 1427 1421 1415 1413 1410 1408 1404 1402 1401 1399 1395 1394 1383 1377 1373 1362 1356 1351 1347 1344 1340 1335 1329 1325 1321 1316 1313 1312 1315 1317 1321 1323 1326 1328 1330
1436 1437 1437 1437 1437 1441 1436 1438 1424 1419 1415 1411 1407 1403 1399 1396 1396 1396 1392 1388 1382 1375 1367 1357 1354 1352 1348 1345 1340 1333 1327 1322 1315 1310 1303 1297 1301 1308 1312 1316 1320 1323 1325 1328
1436 1436 1440 1435 1440 1428 1419 1414 1411 1409 1407 1403 1397 1392 1390 1386 1388 1385 1381 1377 1373 1367 1358 1353 1355 1351 1347 1342 1337 1330 1323 1316 1309 1304 1300 1299 1301 1306 1311 1316 1319 1321 1324 1328
1435 1435 1432 1428 1419 1414 1412 1411 1410 1405 1403 1398 1390 1383 1382 1378 1378 1376 1373 1370 1364 1358 1354 1357 1352 1349 1344 1339 1334 1328 1322 1316 1309 1306 1304 1304 1305 1308 1313 1316 1319 1323 1327 1331
1432 1429 1424 1418 1418 1411 1409 1406 1404 1402 1398 1394 1389 1384 1379 1373 1371 1368 1365 1360 1358 1359 1357 1354 1350 1346 1342 1337 1333 1328 1323 1318 1313 1310 1309 1309 1310 1311 1313 1317 1321 1325 1329 1333
1426 1418 1415 1415 1413 1409 1404 1402 1398 1398 1397 1392 1389 1387 1377 1376 1368 1364 1363 1364 1363 1360 1355 1352 1349 1345 1340 1336 1332 1327 1323 1319 1316 1314 1313 1312 1313 1315 1317 1319 1323 1327 1331 1335